Regional Weather Roundup
Issued by NWS Spokane, WA

Home | Current Version | Previous Version | Text Only | Print | Product List | Glossary On
Versions: 1 2 3 4 5 6 7 8 9 10 11 12 13 14 15 16 17 18 19 20 21 22 23 24 25 26 27 28 29 30 31 32 33 34 35 36 37 38 39 40 41 42 43 44 45 46 47 48 49 50
822
NZUS01 KOTX 271825
RWROTX

Eastern Washington/Northern Idaho Roundup
National Weather Service, Spokane WA
1000 AM PST MON FEB 27 2017

Note: "fair" indicated few or no clouds below 12,000 feet with no
significant weather and/or obstructions to visibility.

...Northeast Washington and Northern Idaho Panhandle...

CITY           SKY/WX    TMP DP  RH WIND       PRES   REMARKS
Spokane Intl   LGT SNOW  27  25  92 SW12      29.65S FOG     WCI  17
Spokane Downto LGT SNOW  30  27  88 SW9       29.68S FOG     WCI  22
Coeur d Alene  LGT SNOW  34  27  75 SW6       29.65F WCI  29
Deer Park      LGT SNOW  27  24  89 S6        29.66S FOG     WCI  20
Sandpoint      LGT SNOW  30  27  86 SW5       29.64S WCI  25
Bonners Ferry  LGT SNOW  25  21  86 CALM      29.62F

...Southeast Washington and southern Idaho Panhandle...

CITY           SKY/WX    TMP DP  RH WIND       PRES   REMARKS
Walla Walla    CLOUDY    36  32  85 S14       29.75R
Pullman/Moscow LGT SNOW  29  26  89 W9        29.69R FOG     WCI  20
Lewiston       LGT SNOW  33  31  92 CALM      29.73R FOG
Lowell           N/A     34  30  85 CALM      29.74R
Grangeville    CLOUDY    32  25  74 SW10      29.66R WCI  24

...Columbia Basin...

CITY           SKY/WX    TMP DP  RH WIND       PRES   REMARKS
Ephrata        CLOUDY    31  20  63 NE5       29.70R WCI  26
Moses Lake     CLOUDY    32  26  78 CALM      29.72R
Pasco          MOSUNNY   40  30  67 W8        29.76F
Richland       PTCLDY    41  32  72 S9        29.76S
Hermiston      MOSUNNY   41  33  73 SW14      29.76S
Pendleton      PTSUNNY   32  29  88 S7        29.74R WCI  26

...East Slopes Cascades...

CITY           SKY/WX    TMP DP  RH WIND       PRES   REMARKS
The Dalles     PTSUNNY   38  30  73 CALM      29.80S
Yakima         CLOUDY    32  29  88 CALM      29.72F
Ellensburg     CLOUDY    29  24  82 E5        29.68S WCI  24
Stampede Pass  HVY SNOW N/A N/A N/A CALM      29.56S VSB 1/4
Wenatchee      CLOUDY    27  26  96 CALM      29.69F
Omak           CLOUDY    29  16  58 N5        29.70F WCI  24
Chelan           N/A     29  18  64 N6          N/A  WCI  22
Sunnyside      MOCLDY    35  29  78 S3        29.74S

...Southern British Columbia...

CITY           SKY/WX    TMP DP  RH WIND       PRES   REMARKS
Penticton      CLOUDY    25  14  63 N3        29.72F
Castlegar      PTSUNNY   27  18  69 CALM      29.68F
Cranbrook      MOSUNNY   16   9  73 VRB2      29.61S
Osoyoos          N/A     27  14  59 N3          N/A
Creston          N/A     27  18  69 E3          N/A

...Western Montana...

CITY           SKY/WX    TMP DP  RH WIND       PRES   REMARKS
Kalispell      LGT SNOW  20  13  74 CALM      29.62F
Libby            N/A     21  18  86 CALM      29.61F
Missoula       CLOUDY    26  20  77 SE9       29.61S WCI  17

...Neighboring Cities...

CITY           SKY/WX    TMP DP  RH WIND       PRES   REMARKS
Seattle        FLURRIES  37  35  92 S9        29.71F
Portland       LGT RAIN  39  35  86 SW9       29.82S
Boise          CLOUDY    32  23  69 W6        29.76R WCI  26
Great Falls    SUNNY     14   9  80 SE6       29.58F WCI   5
Calgary        MOSUNNY   10   0  61 S7        29.53S WCI   0



USA.gov is the U.S. government's official web portal to all federal, state and local government web resources and services.